Location: Montr�al
(45.5000°N, 73.5830°W)
Time: 20:30:13
(UTC-04:00)

ISS - All Passes

Search period start: 20 October 2014 00:00
Search period end: 30 October 2014 00:00
Orbit: 413 x 416 km, 51.6° (Epoch: 20 October)

Date Brightness Start Highest point End Pass type
(mag) Time Alt. Az. Time Alt. Az. Time Alt. Az.
20 Oct - 14:51:51 10° SW 14:55:00 40° SE 14:58:10 10° ENE daylight
20 Oct - 16:28:30 10° W 16:31:43 42° NNW 16:34:56 10° NE daylight
20 Oct - 18:06:01 10° WNW 18:08:57 27° N 18:11:53 10° ENE daylight
20 Oct - 19:42:53 10° NW 19:46:09 49° NNE 19:49:25 10° E visible
20 Oct - 21:19:45 10° WNW 21:22:46 32° SW 21:25:47 10° SSE visible
21 Oct - 14:03:20 10° SSW 14:06:07 25° SE 14:08:55 10° E daylight
21 Oct - 15:39:19 10° WSW 15:42:37 58° NNW 15:45:56 10° ENE daylight
21 Oct - 17:16:50 10° WNW 17:19:46 28° N 17:22:43 10° ENE daylight
21 Oct - 18:53:53 10° NW 18:57:03 37° NNE 19:00:12 10° E visible
21 Oct - 20:30:35 10° WNW 20:33:51 52° SW 20:37:06 10° SE visible
22 Oct - 13:15:13 10° S 13:17:15 15° SE 13:19:18 10° E daylight
22 Oct - 14:50:12 10° WSW 14:53:33 87° NNW 14:56:54 10° ENE daylight
22 Oct - 16:27:33 10° WNW 16:30:34 30° N 16:33:35 10° NE daylight
22 Oct - 18:04:49 10° NW 18:07:52 31° N 18:10:54 10° ENE daylight
22 Oct - 19:41:29 10° WNW 19:44:50 84° SSW 19:48:10 10° ESE visible
22 Oct - 21:19:22 10° WSW 21:21:04 13° SW 21:22:46 10° SSW visible
23 Oct - 14:01:12 10° SW 14:04:30 59° SE 14:07:48 10° ENE daylight
23 Oct - 15:38:13 10° W 15:41:20 35° NNW 15:44:28 10° NE daylight
23 Oct - 17:15:40 10° WNW 17:18:37 28° N 17:21:34 10° ENE daylight
23 Oct - 18:52:24 10° WNW 18:55:44 64° NNE 18:59:03 10° ESE visible
23 Oct - 20:29:32 10° W 20:32:11 22° SW 20:34:49 10° S visible
24 Oct - 13:12:22 10° SSW 13:15:27 36° SE 13:18:33 10° ENE daylight
24 Oct - 14:48:53 10° W 14:52:07 45° NNW 14:55:21 10° NE daylight
24 Oct - 16:26:24 10° WNW 16:29:20 27° N 16:32:15 10° ENE daylight
24 Oct - 18:03:18 10° NW 18:06:32 46° NNE 18:09:46 10° E daylight
24 Oct - 19:40:06 10° WNW 19:43:12 35° SW 19:46:16 10° SSE visible
25 Oct - 12:23:48 10° S 12:26:26 22° SE 12:29:06 10° E daylight
25 Oct - 13:59:35 10° WSW 14:02:53 64° NNW 14:06:13 10° ENE daylight
25 Oct - 15:37:03 10° WNW 15:40:00 28° N 15:42:57 10° ENE daylight
25 Oct - 17:14:09 10° NW 17:17:16 35° NNE 17:20:23 10° E daylight
25 Oct - 18:50:49 10° WNW 18:54:07 59° SSW 18:57:23 10° SE visible
26 Oct - 11:35:44 10° SSE 11:37:27 14° SE 11:39:11 10° ESE daylight
26 Oct - 13:10:21 10° WSW 13:13:41 85° SSE 13:17:02 10° ENE daylight
26 Oct - 14:47:37 10° WNW 14:50:39 31° N 14:53:41 10° NE daylight
26 Oct - 16:24:56 10° NW 16:27:56 30° N 16:30:57 10° ENE daylight
26 Oct - 18:01:35 10° WNW 18:04:56 87° NNE 18:08:16 10° ESE daylight
26 Oct - 19:39:12 10° W 19:41:13 15° SW 19:43:13 10° S visible
27 Oct - 12:21:15 10° SW 12:24:30 52° SE 12:27:46 10° ENE daylight
27 Oct - 13:58:09 10° W 14:01:17 37° NNW 14:04:26 10° NE daylight
27 Oct - 15:35:37 10° WNW 15:38:33 28° N 15:41:29 10° ENE daylight
27 Oct - 17:12:22 10° WNW 17:15:41 59° NNE 17:18:58 10° ESE daylight
27 Oct - 18:49:23 10° W 18:52:10 25° SW 18:54:56 10° SSE visible
28 Oct - 11:32:20 10° SSW 11:35:20 32° SE 11:38:20 10° ENE daylight
28 Oct - 13:08:41 10° W 13:11:56 49° NNW 13:15:11 10° NE daylight
28 Oct - 14:46:12 10° WNW 14:49:07 27° N 14:52:02 10° ENE daylight
28 Oct - 16:23:07 10° NW 16:26:20 42° NNE 16:29:32 10° E daylight
28 Oct - 17:59:52 10° WNW 18:03:01 40° SW 18:06:10 10° SSE daylight
29 Oct - 10:43:43 10° S 10:46:11 19° SE 10:48:40 10° E daylight
29 Oct - 12:19:15 10° WSW 12:22:35 71° NNW 12:25:55 10° ENE daylight
29 Oct - 13:56:41 10° WNW 13:59:38 28° N 14:02:36 10° NE daylight
29 Oct - 15:33:49 10° NW 15:36:55 34° NNE 15:40:00 10° E daylight
29 Oct - 17:10:28 10° WNW 17:13:47 67° SSW 17:17:05 10° SE daylight
29 Oct - 18:49:30 10° SW 18:49:54 10° SW 18:50:18 10° SW visible
